Theta_e
326 326 325 326 325 325 325 324 324 323 322 322 322 322 322 322 322 320 318 317 317 318 319 320 321 321 316 309 310 320 329 326 322 320 313 308 305 302 298 300 303 301 301 303 303 303 303
325 325 325 325 325 325 326 325 324 321 320 319 319 319 319 319 317 316 316 315 315 315 315 316 317 319 313 301 317 320 320 319 318 315 312 312 308 310 306 305 300 302 305 304 304 304 303
325 325 324 324 324 324 325 323 321 320 319 318 317 317 317 316 315 314 314 314 314 314 315 316 316 314 309 305 316 316 316 314 315 315 311 314 313 308 307 304 308 305 302 305 305 304 300
325 324 324 323 322 322 322 320 319 318 318 317 317 315 313 313 312 312 312 312 312 313 314 315 317 310 302 314 314 314 314 314 316 316 314 315 314 309 306 308 305 302 301 295 299 300 301
325 324 324 323 322 321 320 319 318 318 317 316 315 314 312 311 311 311 311 311 311 312 313 314 308 306 300 316 312 316 315 312 315 316 315 318 312 306 305 299 296 297 292 293 296 302 300
325 325 324 323 322 321 319 318 317 317 316 315 314 313 312 311 310 309 309 310 309 309 310 313 311 300 304 302 311 314 316 316 312 312 310 308 305 299 298 297 289 292 291 291 293 297 297
325 325 324 323 321 320 319 318 316 315 314 314 313 313 312 311 310 309 303 302 299 297 301 298 299 299 303 309 312 310 313 311 311 308 300 304 297 294 298 301 300 297 295 293 294 298 297
324 324 324 323 320 319 319 317 315 314 314 314 312 313 312 311 310 309 301 296 300 298 292 302 303 304 306 307 301 302 308 300 304 299 302 299 296 302 303 302 300 299 296 295 299 302 300
322 322 321 320 319 318 317 316 314 314 314 313 312 312 312 310 309 301 297 300 305 303 292 295 301 301 302 304 298 299 304 300 298 297 300 297 299 304 302 300 298 298 296 296 296 298 301
321 320 318 318 317 316 316 315 314 314 313 312 312 312 310 309 301 299 298 305 305 299 281 285 292 297 301 304 298 305 304 300 298 293 297 298 304 301 298 298 300 294 301 300 298 296 290
316 315 315 314 314 313 313 313 314 314 313 312 311 311 310 308 299 298 302 303 304 293 271 289 292 302 302 297 296 298 305 300 293 295 297 294 297 298 297 298 300 297 302 300 298 293 292
314 314 313 313 313 312 312 312 312 312 312 312 311 311 310 306 302 301 304 304 299 282 271 288 294 293 293 295 295 297 301 303 300 293 294 294 299 296 297 300 300 301 297 296 296 293 286
313 313 313 313 312 312 312 312 312 312 312 311 311 311 308 307 298 303 304 298 281 271 288 286 288 291 290 289 290 292 292 294 289 286 287 291 292 296 297 293 297 296 292 284 283 283 282
311 311 312 312 312 312 312 311 311 310 310 310 310 309 308 304 303 303 300 290 273 283 284 291 290 290 286 289 289 290 288 286 291 291 288 285 283 292 296 293 290 291 291 285 278 279 282
311 311 311 311 310 310 310 310 310 310 309 309 308 303 302 303 304 302 292 280 277 283 288 287 288 286 286 289 288 289 287 289 291 293 287 286 286 296 297 297 295 290 286 293 286 288 283
310 310 310 309 309 309 309 309 309 309 308 307 299 298 297 304 304 297 287 280 283 290 290 289 283 287 283 285 285 286 286 292 290 291 294 291 285 293 295 298 298 294 295 285 287 279 277
310 310 309 309 309 308 308 308 308 308 308 304 295 290 296 305 302 291 280 280 286 290 289 286 285 285 285 285 286 285 286 290 290 288 291 287 286 287 292 290 288 292 291 291 291 287 280
303 306 307 306 306 306 307 307 307 307 306 299 290 283 294 302 286 285 279 286 291 288 291 289 289 286 284 285 283 284 284 287 291 290 284 287 282 279 280 288 292 292 286 285 279 278 281
300 302 304 304 304 304 304 305 306 306 305 294 287 287 296 297 281 281 286 286 288 287 288 288 287 289 290 286 281 285 287 292 291 289 285 286 281 275 279 287 287 284 286 286 285 284 278
299 300 301 304 304 304 303 303 305 305 303 296 287 281 287 292 287 283 283 283 284 290 288 289 287 289 287 284 287 283 284 288 291 290 293 290 283 278 273 278 282 279 283 286 284 278 278
301 301 301 301 303 303 303 302 302 304 303 295 287 283 286 282 284 284 284 283 282 281 287 288 284 285 284 280 282 282 284 286 288 290 289 287 278 282 283 284 282 281 282 283 281 282 279
301 301 302 302 301 302 302 302 303 304 303 292 285 282 285 282 285 284 284 280 280 283 281 278 278 283 284 280 282 281 282 281 280 286 284 284 272 278 272 280 282 280 282 281 282 282 282
301 301 301 302 302 302 303 303 303 303 300 288 289 292 286 284 282 281 281 282 282 284 285 286 284 282 280 282 285 287 286 284 283 281 280 278 274 274 271 277 279 274 279 279 282 284 283
300 301 301 302 303 302 302 302 302 303 301 291 291 290 283 278 282 281 283 283 283 285 281 287 288 285 287 290 289 288 286 285 284 283 282 276 276 273 270 275 264 277 284 285 283 285 288
301 301 301 301 302 302 302 302 302 302 300 292 291 289 284 277 283 283 283 283 285 286 284 285 287 290 289 283 276 274 273 276 279 281 281 282 278 271 266 271 275 278 283 284 283 283 287
301 301 301 302 301 302 302 302 301 301 301 290 289 291 286 279 281 286 283 284 279 278 281 284 288 287 284 280 273 267 267 274 273 276 281 280 280 276 271 269 268 279 285 290 289 278 287
301 301 302 301 301 301 301 301 301 301 301 291 287 289 287 277 282 286 281 281 284 280 278 281 282 282 282 270 263 266 271 276 271 272 274 271 265 268 270 271 275 283 286 289 276 278 288
301 301 301 301 301 301 301 301 301 301 301 295 289 293 288 279 283 289 290 283 284 282 276 281 279 279 276 269 269 265 266 272 274 277 276 274 268 266 268 271 269 285 285 278 284 290 289
301 301 301 301 301 301 301 301 301 301 301 297 289 293 293 286 284 291 292 293 290 288 283 281 279 279 277 272 270 268 269 271 271 268 279 273 275 272 275 275 285 287 285 288 291 290 288
Wind_Speed
27 26 24 23 22 20 19 18 16 14 12 10 10 9 8 6 4 1 2 4 4 6 7 7 7 7 5 1 13 2 5 3 5 1 5 4 4 4 4 4 4 8 8 8 7 11 11
28 27 25 24 23 21 20 19 16 13 11 11 10 8 7 7 4 3 1 2 4 4 5 5 5 4 2 8 6 5 5 5 3 3 3 4 4 2 5 5 4 4 9 11 9 14 10
29 28 27 26 24 23 21 19 17 15 14 12 11 10 10 8 6 4 1 5 6 5 5 5 3 0 4 20 4 6 7 3 1 2 4 2 2 1 3 4 3 4 11 16 11 11 9
32 30 29 27 25 24 22 21 19 18 17 15 14 12 9 7 5 3 5 8 7 7 6 6 1 1 9 6 5 10 4 7 10 11 15 9 2 3 3 4 6 7 7 6 2 5 7
34 32 31 29 27 25 23 22 21 20 19 17 15 12 10 8 5 6 6 8 8 7 7 5 1 1 12 9 4 8 9 5 3 5 7 7 6 7 3 3 4 3 10 7 7 8 6
36 34 33 32 30 29 27 25 23 22 20 17 14 11 9 8 7 4 6 6 3 3 3 3 1 3 6 6 3 3 5 3 2 3 3 5 4 3 4 7 13 8 8 6 8 4 2
38 37 36 35 33 32 31 28 25 23 21 18 15 12 10 9 6 1 4 3 2 1 3 10 7 5 4 3 5 1 3 1 1 1 5 5 4 13 20 19 15 3 7 12 3 4 7
39 39 36 36 34 32 31 29 25 22 21 18 15 13 12 10 6 3 4 4 2 3 7 13 18 17 18 4 6 15 4 0 4 6 2 5 22 12 9 16 17 18 18 25 20 12 11
37 37 37 36 35 32 30 30 27 23 20 18 15 13 11 8 5 3 4 3 3 3 3 7 8 7 7 11 9 16 7 7 7 5 10 16 9 6 16 14 15 17 26 23 20 2 13
38 32 32 31 29 27 26 27 25 24 21 19 16 12 10 7 2 3 1 2 4 4 3 7 5 7 5 7 7 6 9 7 7 19 5 16 14 22 17 15 11 23 12 21 19 11 11
23 27 31 32 30 26 25 25 23 22 21 19 17 13 11 4 3 3 1 5 2 6 3 0 4 2 5 5 7 4 4 4 7 6 9 15 1 8 22 26 14 27 9 18 14 9 6
28 24 24 26 27 26 24 24 23 22 22 21 19 15 14 3 0 4 5 3 5 7 10 1 3 4 1 3 4 1 4 2 3 4 10 19 10 5 8 6 6 11 12 7 8 7 12
13 20 24 24 24 24 24 24 24 23 24 23 20 18 12 6 5 3 2 4 6 5 6 2 3 3 3 2 4 4 5 5 4 0 5 6 17 24 20 20 19 13 11 5 6 12 15
18 16 17 20 24 23 22 21 21 20 19 20 21 19 5 4 2 2 3 5 4 3 3 5 4 4 3 4 2 6 4 3 3 4 8 10 17 7 5 17 20 13 17 13 21 12 16
20 20 22 24 23 23 21 20 18 20 19 17 17 2 3 1 3 3 5 5 9 6 1 6 3 5 3 3 3 7 6 6 7 11 4 4 11 11 6 3 5 8 16 18 22 25 18
19 21 21 22 21 22 23 21 21 20 20 20 4 3 3 4 5 5 3 10 5 4 4 3 3 0 2 7 7 6 3 4 5 13 11 5 8 9 11 4 12 14 4 4 8 16 28
24 19 20 22 22 22 23 23 23 23 24 17 4 4 3 7 4 3 4 5 0 5 2 1 3 3 3 2 2 3 5 5 4 5 9 8 6 6 9 3 14 9 6 12 8 9 12
15 19 20 21 20 20 18 19 22 24 24 8 4 3 2 8 4 2 3 4 2 6 2 5 2 7 8 10 10 8 12 9 6 3 3 3 4 5 10 20 8 10 5 5 3 8 9
10 6 10 15 16 15 14 13 17 26 20 6 4 3 2 3 8 5 2 7 6 4 3 3 4 6 1 2 4 7 5 2 2 3 3 1 1 6 9 5 5 4 8 5 6 7 2
6 5 2 13 17 17 16 13 13 23 15 6 5 5 2 3 2 7 8 7 7 5 3 4 6 1 2 5 8 5 5 4 3 4 10 6 5 8 8 12 7 10 13 12 6 6 4
14 15 12 9 10 17 19 18 16 17 14 6 2 4 4 9 10 4 9 4 10 5 2 2 2 12 10 6 10 12 8 4 5 5 3 5 6 6 11 13 13 16 20 12 12 13 10
12 15 16 17 17 17 18 20 20 22 18 4 4 5 2 3 9 10 10 7 7 4 3 4 6 3 3 8 14 11 8 5 6 5 5 3 5 3 6 14 12 12 19 23 17 19 16
15 15 16 17 18 19 20 22 24 22 12 3 1 1 5 8 6 10 11 16 9 7 6 13 9 5 7 5 3 7 7 3 4 7 7 4 4 2 7 7 4 6 21 16 12 12 11
17 18 19 21 21 21 22 21 21 24 17 4 2 3 4 3 8 9 10 11 13 12 5 3 6 5 5 8 2 3 4 7 6 9 6 5 3 3 6 6 6 12 6 13 12 7 5
21 21 22 23 24 24 23 23 22 23 22 3 3 4 3 3 4 7 8 6 9 8 7 6 7 8 8 5 3 4 4 4 5 10 12 14 5 4 3 5 9 10 4 5 7 3 8
20 22 25 24 24 27 25 24 23 21 24 5 3 3 4 4 3 3 5 7 5 5 3 5 3 2 4 3 4 3 3 3 3 5 5 6 10 4 3 5 5 1 14 11 14 7 9
23 23 25 27 26 26 27 27 26 27 25 6 2 4 5 4 4 4 4 6 5 3 4 3 5 2 3 3 3 4 5 3 4 3 2 2 1 7 7 7 7 10 17 18 6 7 18
25 25 25 26 28 27 29 29 28 29 27 9 3 3 6 3 4 3 2 1 3 4 5 4 5 2 3 3 4 4 3 5 2 4 3 4 3 3 3 5 6 12 14 8 11 9 11
27 27 26 26 28 28 28 29 28 28 29 16 3 2 4 4 2 2 2 8 4 4 5 1 5 5 5 5 1 3 1 1 4 3 3 4 8 5 9 7 6 6 13 17 12 11 14
Wind_Direction
208 208 207 204 203 201 202 205 201 201 209 211 227 227 216 212 228 234 334 336 337 339 341 337 337 350 354 297 246 307 338 275 282 184 219 199 224 206 210 233 300 249 254 274 276 289 277
205 205 204 203 202 199 201 205 197 186 196 184 171 171 166 141 146 127 110 320 319 324 345 339 355 354 155 260 267 282 313 318 248 264 277 197 218 210 243 240 220 297 295 286 290 280 277
206 204 202 199 201 198 197 193 179 173 169 166 154 162 152 139 152 152 231 292 282 307 312 312 337 169 241 244 263 326 334 275 106 94 272 241 119 134 357 310 269 273 305 299 272 264 254
206 202 204 201 199 195 190 179 170 164 160 156 156 161 153 163 167 203 247 261 280 284 291 287 96 166 247 255 283 287 210 271 233 235 238 242 263 264 197 255 323 306 286 279 254 216 260
206 202 202 199 195 187 176 168 167 162 157 158 163 165 168 179 199 241 260 277 281 278 253 251 118 180 267 305 241 257 182 249 299 200 218 249 162 192 151 138 315 210 264 229 292 237 262
205 201 201 198 191 181 170 167 164 161 155 162 165 167 175 178 196 235 288 272 259 353 222 176 269 359 257 254 269 264 164 185 304 345 162 184 198 167 168 163 232 204 230 220 217 265 263
204 204 200 196 186 176 167 164 161 157 158 164 164 168 174 182 184 135 31 72 31 288 243 202 192 227 264 243 316 228 93 2 163 185 215 196 200 209 203 206 231 207 242 256 183 229 302
208 203 195 188 179 171 164 157 155 158 159 161 163 170 178 181 164 108 111 153 190 153 297 236 248 240 260 341 300 274 111 9 183 215 199 297 242 222 205 216 225 240 259 263 276 243 238
201 194 184 178 168 163 159 154 153 156 161 159 163 171 179 165 145 93 160 205 302 145 255 271 221 226 221 186 233 262 173 188 189 215 199 226 213 211 215 227 226 241 239 259 254 230 257
198 192 168 153 147 148 153 151 153 156 160 158 161 171 163 152 119 173 200 309 345 128 328 266 236 253 173 149 251 210 203 180 198 224 202 255 263 256 259 242 225 254 226 259 265 270 263
138 139 139 139 143 149 155 154 156 162 156 159 159 165 157 160 148 148 190 334 94 59 345 116 159 120 148 162 300 14 160 108 217 184 154 226 87 221 238 247 228 258 225 246 253 241 295
131 136 137 143 149 153 154 153 156 161 163 161 164 162 139 118 342 244 319 358 60 57 250 351 103 99 93 243 288 110 108 76 183 220 272 264 290 277 252 300 240 299 283 264 273 258 245
117 142 148 152 152 160 164 166 166 171 167 164 163 162 145 147 166 303 63 49 59 163 342 59 54 12 333 256 305 202 168 181 190 77 234 277 254 255 254 271 272 269 277 280 252 229 250
160 163 162 168 160 162 162 163 165 164 167 168 166 156 123 124 122 123 74 76 186 220 271 356 7 311 228 1 324 327 311 308 250 240 274 271 294 222 201 208 239 209 222 231 250 248 256
165 156 155 150 149 148 145 147 152 153 155 152 122 75 94 142 59 49 94 189 195 180 49 11 354 1 343 50 18 27 15 12 53 26 302 292 258 313 254 324 223 280 218 243 253 261 270
143 143 145 148 154 151 152 155 156 151 139 127 103 94 111 149 90 54 111 218 193 213 74 76 150 270 296 346 356 27 318 53 8 33 358 324 279 263 302 295 257 229 265 210 218 240 246
154 153 154 159 156 156 157 159 153 150 140 127 83 112 134 136 71 98 208 223 152 270 329 18 259 255 240 352 358 337 297 88 51 358 64 14 316 326 337 335 324 303 263 253 267 255 242
21 98 122 121 123 132 139 152 158 155 143 104 115 121 163 146 150 177 174 180 224 250 61 233 259 248 255 267 272 258 263 250 116 59 8 103 275 309 274 283 337 281 71 294 334 337 282
3 54 113 122 126 135 138 146 163 151 147 121 102 116 16 143 184 191 206 221 243 237 183 174 228 215 86 276 244 230 267 28 188 194 217 180 11 306 307 141 101 357 306 243 275 228 275
215 293 305 161 157 158 157 161 169 164 149 90 111 136 146 188 110 175 177 211 219 191 196 191 210 190 242 254 226 249 210 192 239 214 222 166 203 212 240 268 306 279 297 302 255 267 359
208 200 206 213 191 175 172 176 183 182 147 95 132 181 178 177 194 154 166 196 214 222 172 175 241 213 211 237 245 234 210 190 205 216 170 191 238 237 252 263 277 276 294 291 292 292 270
233 218 209 200 207 203 193 187 185 184 157 91 132 140 60 118 137 167 182 199 200 176 149 261 221 189 255 248 249 260 168 185 197 176 180 196 254 236 283 287 264 277 284 278 267 267 255
243 229 219 207 204 204 201 195 189 188 144 118 107 49 116 160 137 172 204 218 229 185 243 233 223 205 206 217 97 267 248 202 170 172 202 187 214 156 255 265 281 285 257 274 262 259 268
245 233 221 215 208 202 198 194 192 189 174 125 120 102 104 159 176 188 175 192 201 192 196 263 208 187 216 169 161 264 290 277 249 237 184 225 175 168 263 269 216 235 301 281 263 283 10
234 234 227 215 209 203 198 193 191 188 170 89 131 119 113 112 202 190 192 180 210 216 197 191 197 199 139 125 62 18 332 337 253 224 225 217 196 256 207 227 276 287 5 339 323 249 38
231 224 222 219 208 202 196 192 188 185 173 111 150 112 115 118 223 186 161 170 167 160 159 228 189 127 93 92 82 143 241 272 275 302 214 178 203 201 328 263 261 324 335 315 278 248 343
234 225 217 213 208 199 195 191 184 178 175 142 127 138 103 117 235 161 178 172 135 122 170 165 158 129 58 92 103 167 225 235 234 224 241 303 39 196 229 245 273 5 324 311 272 326 315
227 221 211 204 201 197 192 189 181 179 175 153 130 174 110 124 275 149 125 139 137 157 147 188 69 334 62 107 136 221 177 232 255 230 200 223 162 236 262 230 253 3 327 354 311 283 281
218 210 203 193 192 190 189 186 177 178 169 151 117 126 100 109 248 336 196 247 264 190 143 163 177 167 176 97 162 120 242 222 206 249 246 239 188 188 178 230 267 188 228 269 259 286 303